Clinton, OK

1:52 PM CDT on September 21, 2017 (GMT -0500)
Clinton Municipal

Weather History for KCLK - November, 2012

Change the Weather History Date:

Friday, November 23, 2012

  Actual Average (KCSM) Record (KCSM)
Temperature  
Mean Temperature 42 °F -  
Max Temperature 53 °F 55 °F 77 °F (2005)
Min Temperature 32 °F 34 °F 21 °F (2003)
Degree Days  
Heating Degree Days 22    
Moisture  
Dew Point 20 °F    
Average Humidity 40    
Maximum Humidity 55    
Minimum Humidity 22    
Precipitation  
Precipitation 0.00 in - - ()
Sea Level Pressure  
Sea Level Pressure 30.46 in    
Wind  
Wind Speed 14 mph (North)    
Max Wind Speed 25 mph    
Max Gust Speed 31 mph    
Visibility 10 miles    
Events      
Averages and records for this station are not official NWS values.
T = Trace of Precipitation, MM = Missing Value Source: NWS Daily Summary

Daily Weather History Graph

Daily Weather History Graph

Search for Another Location

Airport or City:

Trip Planner

Search our weather history database for the weather conditions in past years. The results will help you decide how hot, cold, wet, or windy it might be!

Date:

Astronomy

Nov. 23, 2012 Rise Set
Actual Time 7:19 AM CST 5:24 PM CST
Civil Twilight 6:52 AM CST 5:52 PM CST
Nautical Twilight 6:20 AM CST 6:23 PM CST
Astronomical Twilight 5:50 AM CST 6:53 PM CST
Moon 2:32 PM CST (11/23) 2:48 AM CST (11/23)
Length of Visible Light 11h 00m
Length of Day
10h 05m
Waxing Gibbous, 80% of the Moon is Illuminated
Nov 23
Waxing Gibbous
Nov 28
Full
Dec 6
Last Quarter
Dec 13
New
Dec 19
First Quarter

Hourly Weather History & Observations

Time (CST) Temp. Windchill Dew Point Humidity Pressure Visibility Wind Dir Wind Speed Gust Speed Precip Events Conditions
12:15 AM 51.8 °F - 32.0 °F 47% 30.29 in 10.0 mi NNE 24.2 mph 31.1 mph N/A   Clear
12:35 AM 51.8 °F - 30.2 °F 44% 30.29 in 10.0 mi NNE 25.3 mph 31.1 mph N/A   Clear
12:55 AM 51.8 °F - 30.2 °F 44% 30.30 in 10.0 mi NNE 20.7 mph - N/A   Clear
1:15 AM 50.0 °F - 30.2 °F 47% 30.31 in 10.0 mi NNE 18.4 mph - N/A   Clear
1:35 AM 50.0 °F - 30.2 °F 47% 30.32 in 10.0 mi NNE 16.1 mph - N/A   Clear
1:55 AM 48.2 °F - 30.2 °F 50% 30.34 in 10.0 mi NNE 16.1 mph - N/A   Clear
2:15 AM 48.2 °F - 30.2 °F 50% 30.35 in 10.0 mi North 15.0 mph 19.6 mph N/A   Clear
2:55 AM 46.4 °F 40.4 °F 28.4 °F 50% 30.36 in 10.0 mi North 13.8 mph - N/A   Clear
3:15 AM 46.4 °F 40.1 °F 28.4 °F 50% 30.37 in 10.0 mi North 15.0 mph 20.7 mph N/A   Clear
3:35 AM 44.6 °F 37.2 °F 28.4 °F 53% 30.38 in 10.0 mi North 17.3 mph - N/A   Clear
3:55 AM 44.6 °F 37.4 °F 28.4 °F 53% 30.38 in 10.0 mi North 16.1 mph - N/A   Clear
4:15 AM 44.6 °F 38.1 °F 26.6 °F 49% 30.39 in 10.0 mi North 13.8 mph - N/A   Clear
4:55 AM 44.6 °F 38.1 °F 24.8 °F 46% 30.41 in 10.0 mi North 13.8 mph - N/A   Clear
5:15 AM 42.8 °F 36.6 °F 23.0 °F 46% 30.42 in 10.0 mi North 11.5 mph - N/A   Clear
5:35 AM 42.8 °F 36.6 °F 23.0 °F 46% 30.43 in 10.0 mi North 11.5 mph 17.3 mph N/A   Clear
5:55 AM 42.8 °F 36.6 °F 23.0 °F 46% 30.43 in 10.0 mi North 11.5 mph - N/A   Clear
6:15 AM 42.8 °F 36.6 °F 21.2 °F 42% 30.44 in 10.0 mi North 11.5 mph - N/A   Clear
6:35 AM 41.0 °F 34.3 °F 21.2 °F 45% 30.45 in 10.0 mi North 11.5 mph - N/A   Clear
6:55 AM 41.0 °F 34.3 °F 21.2 °F 45% 30.46 in 10.0 mi North 11.5 mph - N/A   Clear
7:15 AM 41.0 °F 34.7 °F 21.2 °F 45% 30.47 in 10.0 mi North 10.4 mph - N/A   Clear
7:35 AM 39.2 °F 33.0 °F 21.2 °F 49% 30.48 in 10.0 mi North 9.2 mph - N/A   Clear
7:55 AM 39.2 °F 33.6 °F 23.0 °F 52% 30.50 in 10.0 mi North 8.1 mph - N/A   Clear
8:15 AM 41.0 °F 36.4 °F 23.0 °F 49% 30.50 in 10.0 mi North 6.9 mph - N/A   Clear
8:35 AM 41.0 °F 35.8 °F 23.0 °F 49% 30.51 in 10.0 mi North 8.1 mph - N/A   Clear
8:55 AM 42.8 °F 36.2 °F 21.2 °F 42% 30.52 in 10.0 mi North 12.7 mph - N/A   Clear
9:15 AM 44.6 °F 37.2 °F 21.2 °F 39% 30.53 in 10.0 mi NNE 17.3 mph 20.7 mph N/A   Clear
9:35 AM 46.4 °F 40.7 °F 21.2 °F 37% 30.54 in 10.0 mi NNE 12.7 mph - N/A   Clear
9:55 AM 46.4 °F 40.7 °F 21.2 °F 37% 30.55 in 10.0 mi North 12.7 mph - N/A   Clear
10:15 AM 48.2 °F - 19.4 °F 32% 30.55 in 10.0 mi NNE 16.1 mph - N/A   Clear
10:35 AM 50.0 °F - 19.4 °F 30% 30.56 in 10.0 mi NNE 16.1 mph - N/A   Clear
11:15 AM 50.0 °F - 19.4 °F 30% 30.55 in 10.0 mi NNE 15.0 mph - N/A   Clear
11:35 AM 50.0 °F - 19.4 °F 30% 30.54 in 10.0 mi North 17.3 mph 21.9 mph N/A   Clear
12:15 PM 51.8 °F - 19.4 °F 28% 30.53 in 10.0 mi NNE 15.0 mph 20.7 mph N/A   Clear
12:35 PM 51.8 °F - 17.6 °F 26% 30.53 in 10.0 mi North 15.0 mph 19.6 mph N/A   Clear
12:55 PM 53.6 °F - 17.6 °F 24% 30.52 in 10.0 mi North 12.7 mph 18.4 mph N/A   Clear
1:15 PM 53.6 °F - 17.6 °F 24% 30.51 in 10.0 mi North 15.0 mph - N/A   Clear
1:35 PM 53.6 °F - 17.6 °F 24% 30.50 in 10.0 mi NNW 13.8 mph 18.4 mph N/A   Clear
1:55 PM 53.6 °F - 15.8 °F 22% 30.50 in 10.0 mi NNW 16.1 mph - N/A   Clear
2:15 PM 53.6 °F - 15.8 °F 22% 30.49 in 10.0 mi North 16.1 mph - N/A   Clear
2:35 PM 53.6 °F - 15.8 °F 22% 30.49 in 10.0 mi North 17.3 mph - N/A   Clear
2:55 PM 53.6 °F - 15.8 °F 22% 30.49 in 10.0 mi North 15.0 mph - N/A   Clear
3:15 PM 53.6 °F - 15.8 °F 22% 30.49 in 10.0 mi North 11.5 mph - N/A   Clear
3:35 PM 51.8 °F - 14.0 °F 22% 30.48 in 10.0 mi North 12.7 mph - N/A   Clear
4:15 PM 51.8 °F - 14.0 °F 22% 30.47 in 10.0 mi North 10.4 mph 16.1 mph N/A   Clear
4:35 PM 51.8 °F - 14.0 °F 22% 30.47 in 10.0 mi North 10.4 mph - N/A   Clear
4:55 PM 51.8 °F - 14.0 °F 22% 30.47 in 10.0 mi North 8.1 mph - N/A   Clear
5:15 PM 50.0 °F - 14.0 °F 24% 30.47 in 10.0 mi North 6.9 mph - N/A   Clear
5:55 PM 44.6 °F 41.4 °F 14.0 °F 29% 30.47 in 10.0 mi North 5.8 mph - N/A   Clear
6:15 PM 44.6 °F 42.2 °F 14.0 °F 29% 30.47 in 10.0 mi North 4.6 mph - N/A   Clear
6:35 PM 42.8 °F 39.3 °F 14.0 °F 31% 30.47 in 10.0 mi NNE 5.8 mph - N/A   Clear
6:55 PM 41.0 °F 36.4 °F 17.6 °F 39% 30.47 in 10.0 mi NNE 6.9 mph - N/A   Clear
7:15 PM 41.0 °F 37.1 °F 17.6 °F 39% 30.47 in 10.0 mi NNE 5.8 mph - N/A   Clear
7:35 PM 37.4 °F 32.8 °F 17.6 °F 45% 30.47 in 10.0 mi NE 5.8 mph - N/A   Clear
7:55 PM 35.6 °F 29.2 °F 17.6 °F 48% 30.47 in 10.0 mi NE 8.1 mph - N/A   Clear
8:15 PM 35.6 °F 30.7 °F 17.6 °F 48% 30.47 in 10.0 mi NE 5.8 mph - N/A   Clear
8:55 PM 33.8 °F 29.6 °F 17.6 °F 52% 30.46 in 10.0 mi NNE 4.6 mph - N/A   Clear
9:15 PM 33.8 °F 29.6 °F 17.6 °F 52% 30.46 in 10.0 mi NNE 4.6 mph - N/A   Clear
9:35 PM 33.8 °F 29.6 °F 17.6 °F 52% 30.46 in 10.0 mi NE 4.6 mph - N/A   Clear
9:55 PM 33.8 °F - 17.6 °F 52% 30.46 in 10.0 mi Calm Calm - N/A   Clear
10:15 PM 32.0 °F - 17.6 °F 55% 30.46 in 10.0 mi Calm Calm - N/A   Clear
10:35 PM 32.0 °F - 17.6 °F 55% 30.46 in 10.0 mi Calm Calm - N/A   Clear
10:55 PM 33.8 °F - 17.6 °F 52% 30.45 in 10.0 mi Calm Calm - N/A   Clear
11:15 PM 33.8 °F - 17.6 °F 52% 30.44 in 10.0 mi Calm Calm - N/A   Clear
11:55 PM 32.0 °F - 17.6 °F 55% 30.44 in 10.0 mi Calm Calm - N/A   Clear